Regional Weather Roundup
Issued by NWS

Home | Current Version | Previous Version | Graphics & Text | Print | Product List | Glossary On
Versions: 1 2 3 4 5 6 7 8 9 10 11 12 13 14 15 16 17 18 19 20 21 22 23 24 25
000
ASUS45 KCYS 281210
RWRWY

WYOMING REGIONAL WEATHER ROUNDUP
NATIONAL WEATHER SERVICE CHEYENNE WY
600 AM MDT WED JUN 28 2017

NOTE:  "FAIR" INDICATES FEW OR NO CLOUDS BELOW 12,000 FEET
WITH NO SIGNIFICANT WEATHER AND/OR OBSTRUCTIONS TO VISIBILITY.

WYZ001-281300-
YELLOWSTONE NATIONAL PARK

CITY           SKY/WX    TMP DP  RH WIND       PRES   REMARKS
LK YELLOWSTONE   N/A     36  36 100 CALM      30.07S
6HR MIN TEMP:  36; 6HR MAX TEMP:  43;

W YELLOWSTONE  NOT AVBL

$$
WYZ002>013-054>058-071-098>099-281300-
NORTHERN WYOMING

CITY           SKY/WX    TMP DP  RH WIND       PRES   REMARKS
JACKSON        MOCLDY    43  39  87 CALM      30.04R
CODY           FAIR      55  41  59 CALM      29.90R
GREYBULL       FAIR      53  45  74 CALM      29.84R
6HR MIN TEMP:  53; 6HR MAX TEMP:  62;

WORLAND        FAIR      49  43  80 CALM      29.84F
6HR MIN TEMP:  47; 6HR MAX TEMP:  56;

SHERIDAN       FAIR      49  44  83 S3        29.82F
6HR MIN TEMP:  47; 6HR MAX TEMP:  54;

BUFFALO        FAIR      52  41  66 W3        29.88F
6HR MIN TEMP:  51; 6HR MAX TEMP:  57;

GILLETTE       FAIR      51  49  92 S6        29.86R
6HR MIN TEMP:  49; 6HR MAX TEMP:  56;

NEWCASTLE      FAIR      50  46  87 W9        29.87S

$$
WYZ014>020-022>026-101>103-281300-
CENTRAL WYOMING

CITY           SKY/WX    TMP DP  RH WIND       PRES   REMARKS
BIG PINEY      FAIR      37  33  85 E6        30.04S WCI  32
6HR MIN TEMP:  35; 6HR MAX TEMP:  48;

PINEDALE       PTSUNNY   39  39 100 NW5       30.05F
DUBOIS         FAIR      41  34  75 W12       30.02S
LANDER         FAIR      46  38  73 CALM      29.94F
6HR MIN TEMP:  46; 6HR MAX TEMP:  57;

RIVERTON       FAIR      52  40  63 N3        29.93S
6HR MIN TEMP:  45; 6HR MAX TEMP:  57;

CASPER         FAIR      48  40  73 SW9       29.92S
6HR MIN TEMP:  45; 6HR MAX TEMP:  53;

DOUGLAS        FAIR      47  42  83 CALM      29.93R
6HR MIN TEMP:  45; 6HR MAX TEMP:  59;


$$
WYZ021-027>030-104>119-281300-
SOUTHERN WYOMING

CITY           SKY/WX    TMP DP  RH WIND       PRES   REMARKS
EVANSTON       FAIR      52  29  41 CALM      30.06R
6HR MIN TEMP:  50; 6HR MAX TEMP:  60;

KEMMERER         N/A     41  34  75 N10       30.06S
FORT BRIDGER   FAIR      53  28  38 S8        30.07S
ROCK SPRINGS   FAIR      50  32  50 SE3       30.03R
6HR MIN TEMP:  49; 6HR MAX TEMP:  62;

DIXON          FAIR      45  37  75 E3        30.06R
RAWLINS        FAIR      39  36  89 CALM      30.02S
6HR MIN TEMP:  39; 6HR MAX TEMP:  50;

SARATOGA       FAIR      45  43  93 S10       30.05R
LARAMIE        FAIR      40  35  83 S7        30.06S
6HR MIN TEMP:  40; 6HR MAX TEMP:  55;

CHEYENNE       FAIR      52  37  56 NW10      30.00S
6HR MIN TEMP:  49; 6HR MAX TEMP:  61;

TORRINGTON     FAIR      53  44  71 CALM      29.89R
6HR MIN TEMP:  51; 6HR MAX TEMP:  62;

PINE BLUFFS    FAIR      46  41  81 W6        29.96F

$$




USA.gov is the U.S. government's official web portal to all federal, state and local government web resources and services.